Location: Omaha
(41.2590°N, 95.9380°W)
Time: 05:27:06
(UTC-05:00)

Vanguard 2 Rocket - Visible Passes

Search period start: 21 October 2017 00:00
Search period end: 31 October 2017 00:00
Orbit: 555 x 3327 km, 32.9° (Epoch: 20 October)

Date Brightness Start Highest point End Pass type
(mag) Time Alt. Az. Time Alt. Az. Time Alt. Az.
21 Oct 11.0 20:40:38 10° WSW 20:47:36 15° SW 20:55:45 10° S visible
22 Oct 10.8 19:38:43 10° WSW 19:46:59 19° SSW 19:57:39 10° S visible
23 Oct 10.6 18:38:17 10° WSW 18:46:30 24° SSW 18:58:04 10° SSE visible
24 Oct 11.1 19:58:03 10° SW 20:01:24 11° SSW 20:05:05 10° SSW visible
25 Oct 10.9 18:55:07 10° WSW 19:01:00 15° SSW 19:08:20 10° S visible
